GPS BIII-8 (PRN 21)

Last updated on Sun Apr 12 2026 00:03:23 GMT+0000 (Coordinated Universal Time)

1 64202U 25116A 26100.54544697 -.00000065 00000+0 00000+0 0 9992 2 64202 55.1914 33.8532 0008986 333.7150 216.0862 2.00550918 6515
UTC large
Height (km)
Speed (km/s)
/
Latitude / Longitude
Inclination (degrees)
Orbital Period (minutes)
Azimuth
Elevation
Range (km)
Doppler Factor

Next 0 passes for location: London (51.5072 / 0.1276)

Sorry there are no passes over London.
GPS BIII-8 (PRN 21)